FW9262 Weather Reports


time (UTC)temp
F
wind
direction
speed
knots
gust
knots
rain 1hr
in
rain 24hr
in
rain mn
in
humidity
%
barometer
mb
20260507040630 59 319 0.0 2.6 0.00 0.00 0.00 90 1019.7
20260507040127 59 251 0.9 1.7 0.00 0.00 0.00 90 1019.7
20260507035622 59 314 0.0 1.7 0.00 0.00 0.00 89 1019.7
20260507035118 60 206 1.7 2.6 0.00 0.00 0.00 89 1019.3
20260507034616 60 339 0.0 0.9 0.00 0.00 0.00 89 1019.3
20260507034113 60 276 0.9 2.6 0.00 0.00 0.00 89 1019.3
20260507033611 60 296 2.6 3.5 0.00 0.00 0.00 89 1019.3
20260507033108 60 257 1.7 3.5 0.00 0.00 0.00 89 1019.3
20260507032605 60 11 1.7 5.2 0.00 0.00 0.00 88 1019.0
20260507032102 60 334 0.9 1.7 0.00 0.00 0.00 88 1019.0
20260507031558 60 286 0.9 1.7 0.00 0.00 0.00 88 1019.0
20260507031055 60 288 0.9 2.6 0.00 0.00 0.00 88 1019.3
20260507030551 60 349 0.9 2.6 0.00 0.00 0.00 87 1019.0
20260507030050 60 336 1.7 3.5 0.00 0.00 0.00 87 1019.0
20260507025547 60 302 1.7 1.7 0.00 0.00 0.00 86 1019.0
20260507025044 60 319 1.7 2.6 0.00 0.00 0.00 86 1019.0
20260507024542 60 237 1.7 3.5 0.00 0.00 0.00 86 1019.0
20260507024038 61 277 1.7 7.0 0.00 0.00 0.00 85 1018.7
20260507023534 61 348 0.9 3.5 0.00 0.00 0.00 84 1018.7
20260507023032 61 319 0.0 3.5 0.00 0.00 0.00 83 1018.7
20260507022528 61 192 0.9 1.7 0.00 0.00 0.00 83 1018.7
20260507022023 62 293 1.7 5.2 0.00 0.00 0.00 82 1018.7
20260507021520 62 300 3.5 5.2 0.00 0.00 0.00 81 1018.7
20260507021016 62 284 1.7 3.5 0.00 0.00 0.00 80 1018.7
20260507020514 62 282 0.9 1.7 0.00 0.00 0.00 79 1018.7
20260507020010 62 199 2.6 3.5 0.00 0.00 0.00 78 1018.7
20260507015509 63 337 1.7 2.6 0.00 0.00 0.00 77 1018.3
20260507015006 63 249 3.5 7.0 0.00 0.00 0.00 77 1018.7
20260507014502 63 248 1.7 6.1 0.00 0.00 0.00 76 1018.7
20260507013958 64 263 4.3 5.2 0.00 0.00 0.00 74 1018.3
20260507013455 64 217 1.7 5.2 0.00 0.00 0.00 74 1018.7
20260507012952 63 213 4.3 7.0 0.00 0.00 0.00 74 1018.3
20260507012449 64 322 1.7 6.1 0.00 0.00 0.00 74 1018.7
20260507011946 64 269 1.7 2.6 0.00 0.00 0.00 75 1018.7
20260507011443 64 340 0.9 5.2 0.00 0.00 0.00 75 1018.3
20260507010938 64 321 1.7 3.5 0.00 0.00 0.00 76 1018.7
20260507010433 64 240 2.6 5.2 0.00 0.00 0.00 76 1018.3
20260507005930 64 269 1.7 7.8 0.00 0.00 0.00 76 1018.3
20260507005427 64 221 1.7 5.2 0.00 0.00 0.00 76 1018.3
20260507004923 65 312 2.6 3.5 0.00 0.00 0.00 74 1018.3
20260507004420 65 282 1.7 2.6 0.00 0.00 0.00 73 1018.3
20260507003918 64 263 4.3 7.8 0.00 0.00 0.00 74 1018.3
20260507003413 66 302 1.7 5.2 0.00 0.00 0.00 73 1018.3
20260507002908 67 335 1.7 2.6 0.00 0.00 0.00 70 1018.7
20260507002404 66 272 3.5 6.1 0.00 0.00 0.00 69 1018.3
20260507001902 67 179 1.7 2.6 0.00 0.00 0.00 69 1018.7
20260507001359 67 238 1.7 5.2 0.00 0.00 0.00 69 1018.3
20260507000856 67 295 1.7 3.5 0.00 0.00 0.00 71 1018.7
20260507000351 66 328 3.5 6.1 0.00 0.00 0.00 72 1018.3
20260506235847 66 316 3.5 7.8 0.00 0.00 0.00 73 1018.3
20260506235345 67 321 2.6 6.1 0.00 0.00 0.00 72 1018.7
20260506234840 66 209 3.5 7.0 0.00 0.00 0.00 73 1018.3
20260506234338 66 278 5.2 7.0 0.00 0.00 0.00 71 1018.3
20260506233836 66 293 3.5 5.2 0.00 0.00 0.00 70 1018.3
20260506233331 67 259 3.5 7.0 0.00 0.00 0.00 70 1018.7
20260506232829 67 16 1.7 7.8 0.00 0.00 0.00 70 1018.7
20260506232324 66 205 1.7 3.5 0.00 0.00 0.00 71 1018.7
20260506231821 67 275 2.6 7.8 0.00 0.00 0.00 72 1018.7
20260506231319 67 270 1.7 2.6 0.00 0.00 0.00 71 1018.7
20260506230816 66 293 3.5 6.1 0.00 0.00 0.00 72 1018.7
20260506230313 67 261 4.3 7.8 0.00 0.00 0.00 70 1018.7
20260506225809 69 252 3.5 6.1 0.00 0.00 0.00 67 1018.7
20260506225306 69 316 1.7 3.5 0.00 0.00 0.00 67 1018.7
20260506224803 68 32 3.5 6.1 0.00 0.00 0.00 70 1018.7
20260506224300 68 208 3.5 5.2 0.00 0.00 0.00 67 1018.7
20260506223756 68 263 3.5 7.0 0.00 0.00 0.00 67 1018.7
20260506223251 68 322 1.7 5.2 0.00 0.00 0.00 69 1018.7
20260506222749 68 271 2.6 7.0 0.00 0.00 0.00 68 1019.0
20260506222244 68 206 3.5 5.2 0.00 0.00 0.00 67 1019.0
20260506221737 68 235 3.5 7.0 0.00 0.00 0.00 69 1019.0
20260506221234 69 306 3.5 6.1 0.00 0.00 0.00 65 1019.0
20260506220731 69 222 3.5 7.0 0.00 0.00 0.00 66 1019.0
20260506220226 68 321 4.3 7.0 0.00 0.00 0.00 66 1019.3
20260506215723 68 51 1.7 5.2 0.00 0.00 0.00 67 1019.3
20260506215219 69 281 1.7 6.1 0.00 0.00 0.00 65 1019.3
20260506214715 70 289 3.5 3.5 0.00 0.00 0.00 63 1019.7
20260506214213 70 220 2.6 6.1 0.00 0.00 0.00 64 1019.7
20260506213711 69 277 1.7 3.5 0.00 0.00 0.00 65 1019.3
20260506213208 69 206 4.3 6.1 0.00 0.00 0.00 64 1019.7
20260506212705 69 221 4.3 7.0 0.00 0.00 0.00 65 1019.7
20260506212200 68 350 2.6 7.8 0.00 0.00 0.00 66 1019.3
20260506211656 68 282 4.3 7.0 0.00 0.00 0.00 66 1019.7
20260506211152 68 243 4.3 7.8 0.00 0.00 0.00 66 1020.0
20260506210649 68 248 3.5 6.1 0.00 0.00 0.00 65 1020.0
20260506210146 68 206 2.6 6.1 0.00 0.00 0.00 65 1020.0
20260506205644 68 276 3.5 6.1 0.00 0.00 0.00 64 1019.7
20260506205138 68 270 4.3 7.0 0.00 0.00 0.00 65 1019.7
20260506204636 68 167 2.6 6.1 0.00 0.00 0.00 66 1020.0
20260506204133 68 219 3.5 6.1 0.00 0.00 0.00 66 1020.0
20260506203631 68 297 3.5 6.1 0.00 0.00 0.00 66 1020.0
20260506203127 69 225 2.6 6.1 0.00 0.00 0.00 66 1020.0
20260506202626 69 235 3.5 6.1 0.00 0.00 0.00 65 1020.0
20260506202121 69 311 4.3 6.1 0.00 0.00 0.00 65 1020.0
20260506201619 68 269 3.5 5.2 0.00 0.00 0.00 67 1020.0
20260506201115 68 303 5.2 7.0 0.00 0.00 0.00 66 1020.4
20260506200612 69 202 1.7 7.0 0.00 0.00 0.00 66 1020.4
20260506200109 69 213 3.5 5.2 0.00 0.00 0.00 65 1020.4
20260506195605 69 205 2.6 6.1 0.00 0.00 0.00 66 1020.7
20260506195102 69 235 1.7 6.1 0.00 0.00 0.00 66 1020.4
20260506194559 70 262 3.5 5.2 0.00 0.00 0.00 61 1020.4
20260506194055 70 291 2.6 5.2 0.00 0.00 0.00 62 1020.4
20260506193553 70 248 3.5 7.0 0.00 0.00 0.00 63 1020.7
20260506193050 69 303 2.6 5.2 0.00 0.00 0.00 64 1020.7
20260506192547 68 340 1.7 6.1 0.00 0.00 0.00 66 1020.7
20260506192043 69 245 1.7 5.2 0.00 0.00 0.00 65 1020.7
20260506191540 68 219 3.5 7.0 0.00 0.00 0.00 64 1020.7
20260506191035 68 243 1.7 6.1 0.00 0.00 0.00 65 1020.7
20260506190533 68 294 1.7 5.2 0.00 0.00 0.00 66 1021.0
20260506190030 69 293 4.3 5.2 0.00 0.00 0.00 63 1020.7
20260506185527 69 293 1.7 3.5 0.00 0.00 0.00 63 1021.0
20260506185024 69 217 1.7 6.1 0.00 0.00 0.00 65 1021.0
20260506184521 69 10 3.5 5.2 0.00 0.00 0.00 63 1020.7
20260506184018 69 342 0.0 6.1 0.00 0.00 0.00 64 1020.7
20260506183514 69 328 1.7 3.5 0.00 0.00 0.00 64 1020.7
20260506183011 69 234 3.5 7.0 0.00 0.00 0.00 63 1021.0
20260506182508 69 155 1.7 5.2 0.00 0.00 0.00 63 1021.0
20260506182005 68 246 1.7 3.5 0.00 0.00 0.00 64 1020.7
20260506181503 68 224 2.6 3.5 0.00 0.00 0.00 64 1021.0
20260506181000 70 264 3.5 5.2 0.00 0.00 0.00 61 1021.0
20260506180456 70 162 1.7 3.5 0.00 0.00 0.00 63 1021.0
20260506175953 69 272 2.6 3.5 0.00 0.00 0.00 63 1021.0
20260506175450 69 308 1.7 3.5 0.00 0.00 0.00 63 1021.0
20260506174946 69 320 1.7 3.5 0.00 0.00 0.00 64 1021.0
20260506174444 68 50 0.0 3.5 0.00 0.00 0.00 65 1021.0
20260506173940 68 268 2.6 6.1 0.00 0.00 0.00 65 1021.0
20260506173438 69 164 2.6 3.5 0.00 0.00 0.00 65 1021.0
20260506172935 71 359 2.6 3.5 0.00 0.00 0.00 61 1021.0
20260506172432 71 331 0.0 1.7 0.00 0.00 0.00 61 1021.0
20260506171928 71 247 1.7 2.6 0.00 0.00 0.00 59 1020.7
20260506171426 68 354 0.9 1.7 0.00 0.00 0.00 63 1021.0
20260506170924 67 335 0.9 2.6 0.00 0.00 0.00 64 1021.0
20260506170420 68 337 0.0 1.7 0.00 0.00 0.00 65 1021.0
20260506165919 68 1 0.0 1.7 0.00 0.00 0.00 64 1021.0
20260506165417 68 312 0.0 1.7 0.00 0.00 0.00 64 1021.0
20260506164912 68 267 3.5 3.5 0.00 0.00 0.00 64 1020.7
20260506164409 68 271 0.9 2.6 0.00 0.00 0.00 65 1020.7
20260506163908 69 353 0.9 1.7 0.00 0.00 0.00 63 1020.7
20260506163402 69 140 1.7 2.6 0.00 0.00 0.00 64 1020.7
20260506162857 69 0 1.7 1.7 0.00 0.00 0.00 63 1020.7
20260506162355 69 40 0.0 1.7 0.00 0.00 0.00 64 1021.0
20260506161852 70 347 0.0 0.9 0.00 0.00 0.00 63 1021.0
20260506161349 68 348 0.9 1.7 0.00 0.00 0.00 64 1021.0
20260506160847 67 262 1.7 5.2 0.00 0.00 0.00 66 1020.7
20260506160344 67 342 0.9 2.6 0.00 0.00 0.00 67 1021.0
20260506155842 66 238 0.9 1.7 0.00 0.00 0.00 68 1021.0
20260506155338 65 38 0.9 0.9 0.00 0.00 0.00 71 1021.0
20260506153456 64 33 0.9 1.7 0.00 0.00 0.00 72 1021.0
20260506152954 64 334 0.0 1.7 0.00 0.00 0.00 72 1021.0
20260506152450 65 13 0.9 1.7 0.00 0.00 0.00 70 1021.0
20260506151949 64 67 1.7 3.5 0.00 0.00 0.00 73 1020.7
20260506151446 64 25 1.7 2.6 0.00 0.00 0.00 71 1021.0
20260506150943 63 30 0.9 1.7 0.00 0.00 0.00 73 1021.0
20260506150439 63 57 0.9 1.7 0.00 0.00 0.00 74 1020.7
20260506145936 64 351 0.9 2.6 0.00 0.00 0.00 72 1021.0
20260506145432 63 76 0.9 1.7 0.00 0.00 0.00 72 1021.0
20260506144930 62 48 1.7 3.5 0.00 0.00 0.00 74 1021.0
20260506144427 63 26 1.7 1.7 0.00 0.00 0.00 71 1021.0
20260506143925 62 1 0.9 2.6 0.00 0.00 0.00 73 1021.0
20260506143422 61 10 0.0 1.7 0.00 0.00 0.00 74 1021.0
20260506142920 62 8 0.9 2.6 0.00 0.00 0.00 73 1021.0
20260506142418 61 350 0.0 1.7 0.00 0.00 0.00 75 1020.7
20260506141916 61 0 0.0 3.5 0.00 0.00 0.00 75 1020.7
20260506141413 60 344 0.0 0.9 0.00 0.00 0.00 75 1020.7
20260506140911 60 5 0.9 2.6 0.00 0.00 0.00 75 1020.7
20260506140408 60 348 0.0 0.9 0.00 0.00 0.00 76 1020.7
20260506135905 60 8 0.9 1.7 0.00 0.00 0.00 76 1020.7
20260506135402 59 348 0.0 0.0 0.00 0.00 0.00 77 1020.7
20260506134858 59 356 0.9 1.7 0.00 0.00 0.00 77 1020.4
20260506134354 58 348 0.0 0.0 0.00 0.00 0.00 80 1020.7
20260506133851 57 343 0.0 0.0 0.00 0.00 0.00 83 1020.7
20260506133348 56 342 0.0 0.0 0.00 0.00 0.00 84 1020.4
20260506132844 55 340 0.0 0.0 0.00 0.00 0.00 86 1020.4
20260506132342 54 342 0.0 0.0 0.00 0.00 0.00 86 1020.4
20260506131840 54 340 0.0 0.0 0.00 0.00 0.00 87 1020.4
20260506131336 54 345 0.0 0.0 0.00 0.00 0.00 87 1020.4
20260506130833 54 338 0.0 0.0 0.00 0.00 0.00 87 1020.4
20260506130329 53 339 0.0 0.0 0.00 0.00 0.00 87 1020.4
20260506125827 53 343 0.0 0.0 0.00 0.00 0.00 87 1020.4
20260506125326 53 340 0.0 0.0 0.00 0.00 0.00 87 1020.4
20260506124824 53 343 0.0 0.0 0.00 0.00 0.00 87 1020.4
20260506124320 53 340 0.0 0.0 0.00 0.00 0.00 87 1020.0
20260506123818 53 341 0.0 0.0 0.00 0.00 0.00 86 1020.0
20260506123317 53 342 0.0 0.0 0.00 0.00 0.00 86 1020.0
20260506122813 54 339 0.0 0.0 0.00 0.00 0.00 87 1020.0
20260506122310 54 337 0.0 0.0 0.00 0.00 0.00 87 1020.0
20260506121808 54 338 0.0 0.0 0.00 0.00 0.00 87 1020.0
20260506121305 53 341 0.0 0.0 0.00 0.00 0.00 87 1020.0
20260506120802 53 342 0.0 0.0 0.00 0.00 0.00 88 1019.7
20260506120300 53 341 0.0 0.0 0.00 0.00 0.00 88 1020.0
20260506115757 53 340 0.0 0.0 0.00 0.00 0.00 88 1019.7
20260506115255 53 338 0.0 0.0 0.00 0.00 0.00 88 1019.7
20260506114753 53 338 0.0 0.0 0.00 0.00 0.00 88 1020.0
20260506114250 53 339 0.0 0.0 0.00 0.00 0.00 88 1019.7
20260506113749 53 338 0.0 0.0 0.00 0.00 0.00 88 1019.7
20260506113246 53 337 0.0 0.0 0.00 0.00 0.00 88 1019.7
20260506112742 53 338 0.0 0.0 0.00 0.00 0.00 88 1019.7
20260506112240 53 339 0.0 0.0 0.00 0.00 0.00 88 1019.3
20260506111737 53 338 0.0 0.0 0.00 0.00 0.00 88 1019.7
20260506111235 53 344 0.0 0.0 0.00 0.00 0.00 88 1019.7
20260506110732 53 342 0.0 0.9 0.00 0.00 0.00 88 1019.7
20260506110230 53 345 0.0 0.0 0.00 0.00 0.00 88 1019.3
20260506105726 53 338 0.0 0.0 0.00 0.00 0.00 88 1019.7
20260506105223 53 338 0.0 0.0 0.00 0.00 0.00 88 1019.7
20260506104721 54 333 0.0 0.0 0.00 0.00 0.00 88 1019.7
20260506104218 54 339 0.0 0.0 0.00 0.00 0.00 88 1019.7
20260506103715 54 337 0.0 0.0 0.00 0.00 0.00 88 1019.7
20260506103212 54 337 0.0 0.0 0.00 0.00 0.00 88 1019.7
20260506102710 54 353 0.0 0.0 0.00 0.00 0.00 88 1019.3
20260506102208 54 341 0.0 0.0 0.00 0.00 0.00 88 1019.7
20260506101704 54 340 0.0 0.9 0.00 0.00 0.00 88 1019.7
20260506101201 54 335 0.0 0.0 0.00 0.00 0.00 88 1019.7
20260506100659 54 338 0.0 0.0 0.00 0.00 0.00 88 1020.0
20260506100157 54 338 0.0 0.0 0.00 0.00 0.00 88 1020.0
20260506095655 54 337 0.0 0.0 0.00 0.00 0.00 88 1019.7
20260506095151 54 327 0.0 0.0 0.00 0.00 0.00 87 1019.7
20260506094649 54 337 0.0 0.0 0.00 0.00 0.00 87 1019.7
20260506094147 54 336 0.0 0.0 0.00 0.00 0.00 87 1019.7
20260506093645 54 340 0.0 0.0 0.00 0.00 0.00 87 1019.7
20260506093142 54 333 0.0 0.0 0.00 0.00 0.00 87 1019.7
20260506092640 54 341 0.0 0.0 0.00 0.00 0.00 87 1019.7
20260506092137 55 338 0.0 0.0 0.00 0.00 0.00 87 1019.7
20260506091635 55 335 0.0 0.0 0.00 0.00 0.00 86 1019.7
20260506091132 55 339 0.0 0.0 0.00 0.00 0.00 86 1019.7
20260506090630 55 317 0.0 0.0 0.00 0.00 0.00 86 1020.0
20260506090126 55 343 0.0 0.9 0.00 0.00 0.00 86 1020.0
20260506085623 55 337 0.0 0.0 0.00 0.00 0.00 86 1020.0
20260506085119 55 346 0.0 0.0 0.00 0.00 0.00 86 1020.4
20260506084616 55 339 0.0 0.0 0.00 0.00 0.00 86 1020.0
20260506084112 55 338 0.0 0.0 0.00 0.00 0.00 86 1020.4
20260506083610 55 333 0.0 0.0 0.00 0.00 0.00 86 1020.0
20260506083107 55 337 0.0 0.0 0.00 0.00 0.00 86 1020.0
20260506082603 55 339 0.0 0.0 0.00 0.00 0.00 86 1020.0
20260506082059 55 339 0.0 0.0 0.00 0.00 0.00 86 1020.4
20260506081558 55 343 0.0 0.0 0.00 0.00 0.00 86 1020.4
20260506081055 55 336 0.0 0.0 0.00 0.00 0.00 86 1020.0
20260506080552 55 332 0.0 0.0 0.00 0.00 0.00 86 1020.4
20260506073033 55 336 0.0 0.0 0.00 0.00 0.00 85 1020.0
20260506072530 55 336 0.0 0.0 0.00 0.00 0.00 85 1020.4
20260506072028 55 332 0.0 0.0 0.00 0.00 0.00 85 1020.0
20260506071525 56 334 0.0 0.0 0.00 0.00 0.00 85 1020.4
20260506071022 56 336 0.0 0.0 0.00 0.00 0.00 85 1020.0
20260506070520 56 334 0.0 0.0 0.00 0.00 0.00 85 1020.0
20260506062457 57 332 0.0 0.0 0.00 0.00 0.00 85 1019.7
20260506061953 57 340 0.0 0.0 0.00 0.00 0.00 85 1019.7
20260506061449 57 339 0.0 0.0 0.00 0.00 0.00 85 1019.3
20260506060947 57 338 0.0 0.0 0.00 0.00 0.00 84 1019.3
20260506060446 57 339 0.0 0.0 0.00 0.00 0.00 84 1019.7
20260506050914 58 341 0.0 0.0 0.00 0.00 0.00 83 1019.3
20260506050412 58 343 0.0 0.0 0.00 0.00 0.00 83 1019.3
20260506044902 58 336 0.0 0.0 0.00 0.00 0.00 81 1018.7
20260506044400 58 337 0.0 0.0 0.00 0.00 0.00 81 1018.7
20260506043857 58 346 0.0 0.0 0.00 0.00 0.00 82 1018.7
20260506043354 58 335 0.0 0.0 0.00 0.00 0.00 82 1018.7
20260506042852 58 339 0.0 0.0 0.00 0.00 0.00 82 1018.3
20260506042351 58 339 0.0 0.0 0.00 0.00 0.00 82 1018.7
20260506041849 59 342 0.0 0.0 0.00 0.00 0.00 82 1018.7
20260506041346 59 337 0.0 0.0 0.00 0.00 0.00 81 1018.7